www.pogodaiklimat.ru

Погода и климат >> Архив погоды >> Австралия >> Longreach Airport


ПОГОДА в Longreach Airport

  • Прогноз погоды в Longreach Airport
  • Монитор погоды в Longreach Airport
  • Климат города

АРХИВ ПОГОДЫ в Longreach Airport

Время (UTC), дата Ветер
(напр.,м/с)
 
Видим.   Явления Облачность Т
(С)
Тd
(С)
f
(%)
Тe
(С)
Тes
(С)
Комфортность P
(гПа)
Po
(гПа)
Тmin
(С)
Tmax
(С)
R
(мм)
R24
(мм)
S
(см)
23 20.05 СВ 2 н/о н/о +21.3 +14.1 63 +24 +24 комфорт 1017.4 995.0
00 21.05 В 3 н/о н/о +23.9 +14.7 56 +27 +27 жарко 1017.8 995.3
02 21.05 В 3 н/о н/о +27.7 +13.6 42 +30 +30 жарко 1016.0 993.6 +14.3
03 21.05 ЮВ 3 н/о н/о +29.3 +12.6 36 +30 +30 жарко 1014.9 992.5
05 21.05 ЮВ 3 н/о 4/0
[]
+31.1 +8.0 24 +30 +34 жарко 1013.4 991.0
06 21.05 В 4 н/о н/о +29.9 +4.5 20 +28 +28 жарко 1013.5 991.1
08 21.05 В 3 н/о н/о +26.3 +6.6 28 +26 +26 жарко 1014.4 992.0
09 21.05 В 4 н/о н/о +24.0 +5.9 31 +24 +24 комфорт 1014.9 992.5
11 21.05 ЮВ 4 н/о ясно +21.8 +6.9 38 +23 +23 комфорт 1016.0 993.6
12 21.05 ЮВ 4 н/о н/о +20.4 +5.8 38 +21 +21 комфорт 1016.4 994.0
14 21.05 В 4 н/о н/о +18.8 +5.9 43 +19 +19 1016.0 993.6 +31.7
15 21.05 В 3 н/о н/о +18.0 +7.6 51 +18 +18 1015.9 993.5
17 21.05 Ю 3 н/о н/о +16.6 +6.2 50 +16 +16 1016.0 993.6
18 21.05 ЮВ 3 н/о н/о +16.0 +7.4 57 +16 +16 1016.0 993.6
20 21.05 ЮВ 4 н/о н/о +15.9 +9.6 66 +15 +15 1017.1 994.7
21 21.05 В 4 н/о н/о +15.3 +9.3 67 +14 +14 1018.0 995.5
23 21.05 СВ 7 н/о н/о +24.1 +13.1 50 +26 +26 жарко 1019.1 996.6
00 22.05 СВ 6 н/о н/о +25.9 +13.1 45 +28 +28 жарко 1019.3 996.8
02 22.05 СВ 5 н/о н/о +28.9 +9.5 30 +29 +29 жарко 1017.8 995.3 +15.0
03 22.05 В 4 н/о н/о +29.3 +7.7 26 +29 +29 жарко 1016.6 994.2
05 22.05 В 4 н/о н/о +30.0 +3.7 19 +28 +28 жарко 1015.2 992.8
06 22.05 В 4 н/о н/о +29.9 +4.2 20 +28 +28 жарко 1015.3 992.9
08 22.05 ЮВ 3 н/о н/о +26.0 +5.5 27 +25 +25 комфорт 1015.8 993.4
09 22.05 В 3 н/о н/о +24.0 +5.3 30 +24 +24 комфорт 1016.6 994.2
11 22.05 ЮВ 3 н/о н/о +21.7 +5.3 34 +22 +22 комфорт 1018.0 995.5
12 22.05 ЮВ 4 н/о н/о +19.6 +5.7 40 +20 +20 1018.2 995.7
14 22.05 В 3 н/о н/о +17.3 +5.4 45 +17 +17 1018.2 995.7 +31.8
15 22.05 СВ 3 н/о н/о +18.1 +6.5 47 +18 +18 1018.0 995.5
17 22.05 ЮВ 2 н/о н/о +15.0 +6.1 55 +15 +15 1017.4 995.0
18 22.05 В 3 н/о н/о +15.9 +7.1 56 +15 +15 1017.4 995.0
20 22.05 В 4 н/о н/о +14.9 +7.5 61 +14 +14 1018.1 995.6
21 22.05 ЮВ 3 н/о н/о +14.5 +7.9 65 +14 +14 1019.0 996.5
23 22.05 СВ 4 н/о н/о +22.7 +14.2 59 +26 +26 жарко 1020.1 997.6
00 23.05 СВ 6 н/о н/о +26.0 +13.7 47 +28 +28 жарко 1020.2 997.7
02 23.05 СВ 5 н/о ясно +29.3 +12.8 36 +30 +37 жарко 1018.5 996.0 +14.4
03 23.05 СВ 5 н/о н/о +29.3 +10.9 32 +30 +30 жарко 1017.2 994.8
05 23.05 В 4 н/о н/о +30.8 +8.3 25 +30 +30 жарко 1015.9 993.5
06 23.05 ЮВ 3 н/о н/о +30.7 +7.0 23 +29 +29 жарко 1015.9 993.5
08 23.05 В 4 н/о н/о +25.9 +7.6 31 +26 +26 жарко 1016.5 994.1
09 23.05 В 4 н/о н/о +23.6 +6.7 34 +24 +24 комфорт 1017.1 994.7
11 23.05 ЮВ 3 н/о н/о +21.2 +6.8 39 +22 +22 комфорт 1018.2 995.7
12 23.05 ЮВ 3 н/о н/о +19.9 +6.7 42 +21 +21 комфорт 1018.4 995.9
14 23.05 ЮВ 3 н/о н/о +18.8 +6.7 45 +20 +20 1018.5 996.0 +31.7
15 23.05 штиль 0 н/о н/о +15.7 +6.5 54 +16 +16 1018.4 995.9
17 23.05 ЮВ 2 н/о н/о +15.8 +6.4 54 +16 +16 1018.1 995.6
18 23.05 ЮВ 3 н/о н/о +15.0 +6.1 55 +14 +14 1018.1 995.6
20 23.05 В 4 н/о н/о +14.0 +6.4 60 +13 +13 1018.8 996.3
21 23.05 ЮВ 3 н/о н/о +15.0 +7.4 60 +14 +14 1019.5 997.0
23 23.05 СВ 3 н/о н/о +22.6 +11.8 50 +25 +25 комфорт 1020.7 998.2
00 24.05 С 4 н/о н/о +25.1 +13.3 48 +27 +27 жарко 1020.7 998.2
02 24.05 СВ 3 н/о н/о +29.1 +10.5 31 +29 +29 жарко 1019.0 996.5 +13.9
03 24.05 Ю 3 н/о н/о +29.3 +9.1 28 +29 +29 жарко 1017.9 995.4
05 24.05 ЮВ 4 н/о 5/0
[]
+30.5 +7.5 24 +29 +32 жарко 1016.5 994.1
06 24.05 ЮВ 2 н/о н/о +29.5 +7.8 26 +29 +29 жарко 1016.3 993.9
08 24.05 ЮВ 3 н/о 5/0
[]
+27.2 +7.5 29 +27 +27 жарко 1017.1 994.7
09 24.05 Ю 3 н/о н/о +24.5 +8.3 36 +25 +25 комфорт 1017.6 995.1
11 24.05 Ю 3 н/о н/о +22.3 +7.3 38 +23 +23 комфорт 1018.6 996.1
12 24.05 Ю 4 н/о н/о +20.6 +5.8 38 +22 +22 комфорт 1018.6 996.1
14 24.05 Ю 3 н/о н/о +19.2 +5.9 42 +20 +20 1018.4 995.9 +31.6
15 24.05 Ю 3 н/о н/о +17.5 +6.4 48 +18 +18 1018.1 995.6
17 24.05 В 4 н/о 5/0
[]
+18.6 +7.2 47 +19 +19 1017.9 995.4
18 24.05 ЮЗ 3 н/о н/о +17.1 +6.9 51 +17 +17 1018.3 995.8
20 24.05 Ю 3 н/о н/о +15.1 +7.7 61 +14 +14 1018.5 996.0
21 24.05 Ю 3 н/о н/о +14.7 +7.2 61 +14 +14 1019.0 996.5
23 24.05 ЮВ 4 н/о н/о +21.5 +6.9 39 +22 +22 комфорт 1019.5 997.0
00 25.05 В 4 н/о н/о +25.4 +6.7 30 +25 +25 комфорт 1019.7 997.2
02 25.05 ЮВ 3 н/о н/о +28.9 +2.7 19 +27 +27 жарко 1018.6 996.1 +13.4
03 25.05 ЮВ 3 н/о н/о +29.8 +2.8 18 +28 +28 жарко 1017.6 995.1
05 25.05 Ю 5 н/о н/о +30.2 +1.5 16 +28 +28 жарко 1015.9 993.5
06 25.05 ЮЗ 4 н/о н/о +29.9 +1.6 16 +27 +27 жарко 1015.8 993.4
08 25.05 Ю 3 н/о ясно +26.1 +3.0 22 +25 +25 комфорт 1016.5 994.1
09 25.05 Ю 4 н/о н/о +22.9 +1.7 25 +22 +22 комфорт 1016.9 994.5
11 25.05 Ю 5 н/о 5/0
[]
+22.2 +0.3 23 +22 +22 комфорт 1017.8 995.3
12 25.05 Ю 4 н/о н/о +19.3 +1.6 31 +20 +20 1017.9 995.4
14 25.05 ЮВ 4 н/о 5/0
[]
+18.2 +1.7 33 +18 +18 1017.2 994.8 +31.0
15 25.05 ЮВ 4 н/о н/о +17.7 +1.5 34 +17 +17 1017.2 994.8
17 25.05 ЮВ 4 н/о 9/0
[]
+17.5 +2.1 36 +17 +17 1016.6 994.2
18 25.05 ЮВ 3 н/о н/о +17.7 +2.8 37 +18 +18 1016.6 994.2
20 25.05 ЮВ 2 н/о 10/0
[]
+16.7 +2.7 39 +17 +17 1016.9 994.5
21 25.05 В 2 н/о н/о +15.1 +3.6 46 +15 +15 1017.4 995.0
23 25.05 ЮВ 3 н/о 9/0
[]
+19.4 +2.7 33 +20 +21 1018.1 995.6
00 26.05 З 1 н/о н/о +21.4 +4.2 32 +22 +22 комфорт 1018.4 995.9
02 26.05 СВ 3 н/о 5/0
[]
+27.8 +3.0 20 +26 +33 жарко 1016.7 994.3 +14.2
03 26.05 СВ 4 н/о н/о +29.4 +1.6 17 +27 +27 жарко 1015.6 993.2
05 26.05 СВ 3 н/о 4/0
[]
+30.0 +0.2 15 +27 +31 жарко 1014.1 991.7
06 26.05 З 3 н/о н/о +28.7 +0.4 16 +26 +26 жарко 1013.9 991.5
08 26.05 З 2 н/о н/о +25.1 +5.7 29 +25 +25 комфорт 1014.4 992.0
09 26.05 ЮВ 3 н/о н/о +23.1 +3.1 27 +23 +23 комфорт 1015.0 992.6
11 26.05 ЮВ 5 н/о 4/0
[]
+21.2 +1.6 27 +21 +21 комфорт 1016.1 993.7
12 26.05 В 5 н/о н/о +19.0 +2.1 32 +19 +19 1016.2 993.8
14 26.05 В 4 н/о н/о +16.7 +4.2 43 +16 +16 1016.1 993.7 +30.9
15 26.05 Ю 3 н/о н/о +16.5 +3.3 41 +16 +16 1016.4 994.0
17 26.05 ЮВ 3 н/о н/о +14.5 +3.9 49 +14 +14 1016.0 993.6
18 26.05 В 4 н/о н/о +13.8 +3.2 49 +13 +13 1016.1 993.7
20 26.05 ЮВ 4 н/о н/о +12.9 +3.1 51 +12 +12 1016.8 994.4
21 26.05 В 2 н/о н/о +12.5 +4.2 57 +12 +12 1017.7 995.2
23 26.05 СВ 4 н/о н/о +21.5 +5.3 35 +22 +22 комфорт 1018.5 996.0
00 27.05 С 4 н/о н/о +23.6 +7.2 35 +24 +24 комфорт 1018.6 996.1
02 27.05 С 6 н/о н/о +28.2 +7.5 27 +28 +28 жарко 1016.9 994.5 +12.5
03 27.05 С 6 н/о н/о +29.2 +6.0 23 +28 +28 жарко 1015.8 993.4
05 27.05 С 6 н/о ясно +30.0 +4.7 20 +28 +31 жарко 1014.3 991.9
06 27.05 СЗ 5 н/о н/о +30.1 +4.2 19 +28 +28 жарко 1014.1 991.7
08 27.05 СЗ 3 н/о н/о +25.2 +5.6 28 +25 +25 комфорт 1014.7 992.3
09 27.05 З 3 н/о н/о +21.7 +3.5 30 +22 +22 комфорт 1015.3 992.9
11 27.05 З 5 н/о н/о +22.5 +1.3 25 +22 +22 комфорт 1016.6 994.2
12 27.05 ЮВ 2 н/о н/о +20.0 +1.8 30 +21 +21 комфорт 1017.1 994.7
14 27.05 З 3 н/о н/о +14.5 +1.2 40 +14 +14 1017.1 994.7 +31.2
15 27.05 З 2 н/о н/о +12.7 +0.6 43 +12 +12 1017.2 994.8
17 27.05 штиль 0 н/о н/о +11.6 +0.3 46 +11 +11 1016.9 994.5
18 27.05 ЮЗ 2 н/о н/о +12.9 -1.4 37 +13 +13 1016.6 994.2
20 27.05 Ю 3 н/о н/о +8.9 -1.1 49 +7 +7 1017.1 994.7

 

Местоположение метеостанции Longreach Airport (Квинсленд, Австралия): широта -23.43 долгота 144.28 высота над уровнем моря 192 м.

В архиве по умолчанию представлена погода в Longreach Airport за последнюю неделю. Архивные данные за месяц целиком и за предыдущие месяцы, начиная с января 2011 года, Вы можете получить, выбрав интересующий диапазон дат из раскрывающегося списка и нажав кнопку "Ввод!".

Внимание! Время в таблицах - всемирное. Для получения местного времени необходимо прибавить поправку, которая в Longreach Airport равна 10 ч.

Смотрите также архив погоды в соседних городах и на ближайших метеорологических станциях:

Погода в Blackall Airport (Квинсленд, Австралия) (161 км)
Погода в Winton Airport (Квинсленд, Австралия) (170 км)
Погода в Hughenden Airport (Квинсленд, Австралия) (290 км)
Погода в Richmond Airport (Квинсленд, Австралия) (327 км)
Погода в Lochington (Квинсленд, Австралия) (335 км)
Погода в Clermont Airport (Квинсленд, Австралия) (349 км)
Погода в Charleville Aero (Квинсленд, Австралия) (387 км)
Погода в Trepell Airport (Квинсленд, Австралия) (392 км)
Погода в Emerald Airport (Квинсленд, Австралия) (398 км)
Погода в Julia Creek Airport (Квинсленд, Австралия) (404 км)

Пояснения к столбцам:

Ветер - указаны скорость ветра в м/с - средняя за 10 мин, порывы в срок и между сроками (в фигурных скобках) и направление, откуда дует ветер: С - северный, СВ - северо-восточный, В - восточный, ЮВ - юго-восточный, Ю - южный, ЮЗ - юго-западный, З - западный, СЗ - северо-западный.
Видимость - горизонтальная дальность видимости в метрах или километрах. При видимости от 1 до 10 км при отсутствии осадков обычно наблюдается дымка, при ухудшении видимости до 1 км и менее - туман. В сухую погоду видимость может ухудшаться дымом, пылью или мглою.
Явления - указаны атмосферные явления, наблюдавшиеся в срок или в последний час перед сроком; фигурными скобками обозначены явления, наблюдавшиеся между сроками (за 1-3 часа до срока); квадратными скобками обозначены град или гололедные отложения с указанием их диаметра в мм.
Облачность - указаны через наклонную черту общая и нижняя облачность в баллах и высота нижней границы облаков в метрах; квадратными скобками обозначены формы облаков: Ci - перистые, Cs - перисто-слоистые, Cc - перисто-кучевые, Ac - высококучевые, As - высокослоистые, Sc - слоисто-кучевые, Ns - слоисто-дождевые, Cu - кучевые, Cb - кучево-дождевые. Подробнее классификацию облаков см. в Атласе облаков (PDF).
T - Температура воздуха - температура, измеренная на высоте 2 м над землей.
Td - Температура точки росы - температура, при понижении до которой содержащийся в воздухе водяной пар достигнет насыщения.
f - Относительная влажность воздуха - влажноcть воздуха, измеренная на высоте 2 м над землей.
Te - Эффективная температура - температура, которую ощущает одетый по сезону человек в тени. Характеристика душности погоды. При расчете учитывается влияние влажности воздуха и скорости ветра на теплоощущения человека.
Tes - Эффективная температура на солнце - температура, которую ощущает человек, с поправкой на солнечный нагрев. Характеристика знойности погоды. Зависит от высоты солнца над горизонтом, облачности и скорости ветра. Ночью, в пасмурную погоду, а также при ветре 12 м/с и более поправка равна нулю.
P - Атмосферное давление - приведенное к уровню моря атмосферное давление.
Po - Атмосферное давление - измеренное на уровне метеостанции атмосферное давление.
Tmin - Минимальная температура - минимум температуры воздуха на высоте 2 м над землей.
Tmax - Максимальная температура - максимум температуры воздуха на высоте 2 м над землей.
R - Количество осадков - Количество выпавших осадков за период времени, мм. При наведении курсора мыши на число - период времени, за который выпало указанное количество осадков.
R24 - Количество осадков - Количество выпавших осадков за 24 часа, мм.
S - Снежный покров - Высота снежного покрова, см. При наведении курсора мыши на число - состояние снежного покрова и степень покрытия местности в баллах.